#timestamp,LO_Frequency,Hit,StdDev 
1578422795.7,286046974.1,P
1578422815.5,286046974.6,P
1578422835.4,286046975.0,P
1578422855.2,286046974.6,Y
1578422875.0,286047003.1,P
1578422875.9,286047003.1,N
1578422895.8,286047005.5,N
1578422915.6,286047003.3,N
1578422935.4,286047003.6,N
1578422955.3,286047003.4,N
1578422975.1,286047003.2,N
1578422995.9,286047003.2,N
1578423015.7,286047003.3,N
1578423035.5,286047003.5,N
1578423055.4,286047004.0,N
1578423075.2,286047001.5,N
1578423095.0,286047000.1,N
1578423095.9,286047000.1,N
1578423115.8,286047002.5,N
1578423135.6,286047000.3,N
1578423155.5,286047000.4,N
1578423175.3,286046999.7,N
1578423195.1,286047000.5,N
1578423215.9,286047000.5,N
1578423235.7,286047000.6,N
1578423255.5,286047001.0,N
1578423275.4,286046998.6,N
1578423295.2,286046999.1,N
1578423315.0,286046999.4,N
1578423315.9,286046999.4,N
1578423335.8,286046997.1,N
1578423355.6,286046997.5,N
1578423375.5,286046996.9,N
1578423395.3,286046999.6,N
1578423445.2,286046997.4,E
1578423455.1,286046998.8,N
1578423456.0,286046998.8,P
1578423475.8,286047001.0,P
1578423495.7,286047001.1,N
1578423515.5,286047000.9,N
1578423535.3,286046998.6,N
1578423555.2,286046999.4,N
1578423575.0,286046999.1,N
1578423575.9,286046999.1,N
1578423595.8,286046996.7,Y
